Date,TemperatureHighF,TemperatureAvgF,TemperatureLowF,DewpointHighF,DewpointAvgF,DewpointLowF,HumidityHigh,HumidityAvg,HumidityLow,PressureMaxIn,PressureMinIn,WindSpeedMaxMPH,WindSpeedAvgMPH,GustSpeedMaxMPH,PrecipitationSumIn
2012-1-1,69.0,49.0,38.0,49.0,42.3,37.0,98,81,43,30.18,30.07,4,0,5,0.01
2012-1-2,60.0,47.6,40.0,51.0,44.7,38.0,97,90,72,30.29,30.14,2,0,5,0.01
2012-1-3,61.0,48.4,42.0,53.0,46.3,41.0,99,93,74,30.34,30.24,3,0,7,0.01
2012-1-4,67.0,49.4,38.0,49.0,43.0,37.0,99,82,46,30.37,30.26,2,0,201,0.01
2012-1-5,68.0,49.3,37.0,52.0,41.2,35.0,96,77,36,30.30,30.14,5,1,10,0.01
2012-1-6,61.0,45.1,33.0,49.0,40.7,32.0,98,86,62,30.19,30.09,2,0,5,0.00
2012-1-7,68.0,49.2,36.0,46.0,36.0,28.0,98,68,23,30.22,30.09,8,1,16,0.01
2012-1-8,70.0,51.4,38.0,36.0,29.7,23.0,87,49,18,30.22,30.14,2,0,6,0.01
2012-1-9,68.0,46.7,33.0,44.0,35.8,29.0,91,69,30,30.24,30.12,2,0,6,0.00
2012-1-10,65.0,46.8,34.0,45.0,38.8,33.0,96,76,41,30.16,30.05,2,0,5,0.00
2012-1-11,39.0,37.8,36.0,36.0,34.7,33.0,90,89,87,30.09,30.07,1,0,3,0.00
2012-1-13,72.0,54.5,35.0,43.0,38.1,33.0,91,58,28,30.20,30.11,2,0,6,0.00
2012-1-14,67.0,46.5,33.0,44.0,37.5,31.0,95,74,38,30.18,30.06,4,0,6,0.00
2012-1-15,54.0,42.9,32.0,44.0,36.1,30.0,95,78,63,30.15,30.04,6,2,15,0.00
2012-1-16,54.0,40.6,30.0,35.0,28.6,21.0,92,66,29,30.32,30.15,4,1,8,0.00
2012-1-17,54.0,39.9,29.0,40.0,31.7,27.0,96,75,43,30.41,30.32,5,1,9,0.00
2012-1-18,59.0,42.5,30.0,42.0,35.8,29.0,96,79,52,30.40,30.25,3,0,6,0.01
2012-1-19,53.0,44.3,33.0,48.0,40.2,32.0,97,86,69,30.25,30.03,2,0,10,0.01
2012-1-20,61.0,55.9,52.0,57.0,52.8,48.0,96,90,80,30.03,29.68,11,2,22,1.45
2012-1-21,59.0,50.9,40.0,57.0,45.2,38.0,94,81,61,30.14,29.68,11,4,25,1.57
2012-1-22,54.0,48.1,40.0,50.0,43.9,38.0,94,86,77,30.15,29.80,5,1,15,0.14
2012-1-23,57.0,51.9,43.0,55.0,48.8,41.0,98,89,73,30.14,29.67,10,3,23,0.61
2012-1-24,62.0,49.4,41.0,51.0,45.5,40.0,98,87,66,30.40,30.14,3,0,6,0.01
2012-1-25,48.0,45.2,43.0,47.0,44.0,42.0,97,95,94,30.42,30.39,1,0,2,0.00
2012-2-11,60.0,52.9,46.0,51.0,48.1,44.0,93,84,71,30.06,29.98,5,2,11,0.04
2012-2-12,60.0,50.3,40.0,49.0,43.3,34.0,97,79,51,30.06,29.96,5,1,16,0.01
2012-2-13,53.0,48.0,43.0,48.0,44.6,40.0,95,88,74,29.99,29.89,8,2,17,0.30
2012-2-14,61.0,47.3,38.0,49.0,42.2,37.0,98,84,59,30.09,29.98,5,1,9,0.05
2012-2-15,50.0,47.4,46.0,48.0,42.9,40.0,94,84,78,30.06,30.03,8,3,20,0.03
2012-2-19,59.0,51.2,43.0,42.0,38.1,27.0,85,63,31,30.13,30.04,6,1,11,0.00
2012-2-20,60.0,49.4,44.0,49.0,45.2,41.0,96,86,65,30.19,30.06,2,0,7,0.04
2012-2-21,67.0,50.9,40.0,52.0,45.8,39.0,98,85,53,30.30,30.19,3,0,8,0.01
2012-2-22,76.0,56.9,43.0,54.0,45.3,40.0,98,70,27,30.26,30.06,5,1,15,0.01
2012-2-23,75.0,57.2,42.0,49.0,38.9,30.0,96,59,20,30.07,29.92,6,1,13,0.01
2012-2-24,77.0,61.1,44.0,47.0,34.5,24.0,82,43,17,30.20,29.96,6,2,17,0.00
2012-2-25,58.0,49.7,39.0,45.0,37.7,33.0,85,65,39,30.32,30.17,8,3,16,0.00
2012-2-26,59.0,45.3,34.0,40.0,34.8,29.0,95,70,32,30.17,29.85,5,1,12,0.00
2012-2-27,53.0,44.5,35.0,40.0,35.9,33.0,95,73,51,29.97,29.82,6,1,15,0.00
2012-2-28,55.0,46.4,35.0,44.0,36.6,32.0,93,71,45,30.23,29.96,8,2,17,0.02
2012-2-29,55.0,50.0,43.0,50.0,44.5,40.0,95,82,61,30.24,30.05,7,2,16,0.39
2012-3-1,56.0,47.3,40.0,49.0,43.0,38.0,97,85,67,30.25,30.18,6,2,18,0.01
2012-3-2,67.0,49.0,36.0,43.0,34.8,28.0,97,65,25,30.35,30.23,4,0,9,0.01
2012-3-3,73.0,52.4,35.0,43.0,37.5,33.0,94,62,30,30.32,30.20,2,0,7,0.01
2012-3-4,76.0,56.8,39.0,48.0,43.0,37.0,93,65,28,30.22,30.02,3,0,8,0.00
2012-3-5,68.0,52.0,39.0,50.0,43.2,37.0,96,75,43,30.08,29.98,5,1,11,0.00
2012-3-6,54.0,48.6,45.0,47.0,36.5,30.0,91,65,42,30.03,29.94,10,4,19,0.02
2012-3-7,66.0,51.6,41.0,35.0,24.8,17.0,70,38,16,30.16,30.03,7,2,14,0.01
2012-3-8,73.0,51.9,34.0,37.0,31.5,21.0,90,53,18,30.30,30.16,4,0,10,0.00
2012-3-9,73.0,53.4,37.0,45.0,38.0,34.0,89,61,25,30.32,30.11,5,1,8,0.00
2012-3-10,62.0,48.9,36.0,49.0,42.3,34.0,91,79,61,30.12,29.97,6,1,12,0.00
2012-3-11,60.0,49.7,41.0,48.0,42.9,39.0,94,78,57,30.05,29.98,5,1,13,0.00
2012-3-12,61.0,49.8,37.0,44.0,40.1,35.0,97,72,45,30.02,29.92,8,2,17,0.00
2012-3-13,56.0,53.8,51.0,52.0,49.9,46.0,94,86,75,29.98,29.88,7,3,18,0.39
2012-3-14,59.0,56.2,54.0,58.0,54.0,50.0,96,92,84,30.10,29.95,4,1,11,0.36
2012-3-15,64.0,58.2,54.0,58.0,54.9,53.0,97,89,78,30.12,30.03,7,1,12,0.04
2012-3-16,60.0,55.5,48.0,56.0,52.4,46.0,96,90,78,30.05,29.71,7,1,15,0.63
2012-3-17,51.0,46.8,43.0,46.0,41.7,37.0,98,84,61,29.74,29.52,8,2,18,0.57
2012-3-18,51.0,46.4,43.0,40.0,37.0,32.0,87,71,50,29.93,29.65,10,4,21,0.03
2012-3-19,59.0,48.1,37.0,40.0,34.3,21.0,96,64,23,30.06,29.93,4,0,8,0.01
2012-3-20,66.0,55.4,49.0,50.0,44.0,-99.9,89,68,53,30.17,30.05,5,1,9,0.00
2012-3-21,72.0,56.4,45.0,54.0,49.0,44.0,97,78,51,30.16,29.95,5,1,10,0.00
2012-3-22,57.0,51.7,43.0,52.0,43.0,-99.9,96,75,42,30.01,29.92,7,-5,12,0.00
2012-3-23,63.0,50.1,37.0,42.0,36.5,30.0,96,63,37,30.07,29.87,5,1,20,0.00
2012-3-24,51.0,47.3,44.0,46.0,42.4,32.0,96,84,49,29.89,29.80,4,0,10,0.79
2012-3-25,58.0,48.5,41.0,49.0,43.9,40.0,98,85,66,29.89,29.76,5,1,11,0.74
2012-3-26,60.0,48.9,38.0,44.0,40.1,37.0,97,74,47,30.07,29.88,6,1,14,0.01
2012-3-27,60.0,54.0,50.0,53.0,47.2,41.0,96,78,63,30.01,29.85,9,2,21,0.73
2012-3-28,67.0,57.9,51.0,56.0,50.8,45.0,97,79,49,30.09,29.93,7,1,13,0.72
2012-3-29,67.0,55.1,45.0,53.0,48.5,44.0,98,80,53,30.11,30.04,5,1,11,0.02
2012-3-30,66.0,58.6,49.0,54.0,51.1,47.0,96,77,58,30.08,29.88,7,1,17,0.00
2012-3-31,60.0,54.8,47.0,52.0,47.6,43.0,93,77,60,30.02,29.70,11,3,21,0.47
2012-4-1,58.0,50.8,44.0,45.0,40.5,35.0,92,69,48,30.26,30.02,6,2,15,0.20
2012-4-2,68.0,51.8,39.0,45.0,40.9,37.0,96,70,35,30.23,30.04,5,1,10,0.00
2012-4-3,66.0,53.0,42.0,51.0,44.6,39.0,93,75,43,30.10,29.98,5,1,12,0.01
2012-4-4,56.0,48.8,42.0,46.0,39.3,30.0,97,72,37,30.19,30.10,9,2,17,0.01
2012-4-5,55.0,47.5,39.0,39.0,35.7,33.0,88,65,44,30.16,30.09,7,2,19,0.00
2012-4-6,61.0,47.9,36.0,40.0,36.7,28.0,91,68,28,30.25,30.13,6,1,12,0.00
2012-4-7,68.0,51.2,36.0,42.0,38.2,33.0,90,65,34,30.14,29.99,4,0,9,0.00
2012-4-8,70.0,51.0,38.0,46.0,39.0,32.0,94,69,28,30.04,29.97,6,1,11,0.00
2012-4-9,73.0,53.3,39.0,47.0,39.6,12.0,90,64,10,29.98,29.79,13,1,25,0.00
2012-4-10,57.0,54.0,50.0,54.0,50.0,42.0,96,87,71,29.87,29.79,5,0,13,0.25
2012-4-11,60.0,53.3,47.0,52.0,47.3,45.0,98,81,57,29.97,29.79,6,2,22,0.22
2012-4-12,62.0,54.0,45.0,49.0,44.9,38.0,96,74,41,30.01,29.80,7,2,17,0.88
2012-4-13,55.0,50.3,46.0,48.0,44.0,40.0,97,80,59,29.86,29.70,8,3,20,0.97
2012-4-14,64.0,53.6,46.0,46.0,41.8,-99.9,90,67,46,30.11,29.86,8,2,16,0.01
2012-4-15,68.0,53.6,42.0,53.0,45.3,37.0,96,76,47,30.20,30.11,5,1,11,0.00
2012-4-16,69.0,54.7,42.0,50.0,42.9,37.0,90,67,38,30.22,30.15,4,1,12,0.00
2012-4-17,69.0,57.4,48.0,56.0,48.5,41.0,91,74,39,30.17,30.04,7,1,13,0.00
2012-4-18,70.0,57.3,45.0,53.0,48.2,43.0,92,74,47,30.15,30.08,7,2,14,0.00
2012-4-19,75.0,62.3,50.0,60.0,55.1,48.0,95,79,58,30.14,30.03,5,1,12,0.00
2012-4-20,90.0,70.2,52.0,63.0,55.7,50.0,98,66,30,30.06,29.91,4,1,9,0.00
2012-4-21,92.0,70.9,53.0,63.0,56.5,51.0,94,65,35,29.95,29.79,4,1,8,0.00
2012-4-22,75.0,64.1,55.0,60.0,56.6,53.0,95,78,57,29.88,29.82,5,1,11,0.00
2012-4-23,67.0,60.8,56.0,55.0,52.5,50.0,88,75,60,29.97,29.86,10,4,20,0.00
2012-4-24,73.0,63.5,55.0,56.0,53.7,51.0,89,71,55,30.01,29.91,5,1,16,0.00
2012-4-25,74.0,62.8,57.0,58.0,55.3,53.0,96,77,56,29.98,29.75,6,1,12,0.27
2012-4-26,61.0,56.4,49.0,58.0,49.4,43.0,96,79,54,30.19,29.75,9,2,20,0.29
2012-4-27,69.0,56.0,45.0,47.0,44.2,40.0,92,68,39,30.21,30.11,6,1,10,0.01
2012-4-28,75.0,59.5,46.0,54.0,47.3,-99.9,94,69,40,30.12,29.86,5,1,12,0.00
2012-4-29,84.0,64.4,48.0,59.0,52.0,46.0,96,69,35,29.89,29.81,3,1,9,0.00
2012-5-19,59.0,52.9,56.0,48.0,35.9,-99.9,75,64,63,29.95,29.93,0,-77,0,0.00
2012-5-20,83.0,63.6,49.0,56.0,50.3,46.0,91,65,37,29.99,29.89,6,1,14,0.00
2012-5-21,72.0,61.6,50.0,57.0,51.6,41.0,92,72,32,30.08,29.99,7,2,14,0.00
2012-5-22,74.0,63.4,52.0,56.0,51.3,46.0,95,68,42,30.09,30.02,14,2,17,0.00
2012-5-23,68.0,60.2,52.0,51.0,47.3,44.0,85,64,46,30.03,29.90,10,3,21,0.00
2012-5-24,65.0,57.0,47.0,50.0,45.3,41.0,87,66,51,29.90,29.74,10,3,23,0.00
2012-5-25,61.0,54.4,50.0,47.0,44.1,41.0,82,69,50,29.82,29.72,9,4,18,0.00
2012-5-26,60.0,52.8,45.0,50.0,46.7,43.0,95,80,66,30.09,29.82,8,2,15,0.00
2012-5-27,66.0,56.8,51.0,53.0,48.0,43.0,83,73,55,30.14,30.06,6,2,12,0.00
2012-5-28,64.0,55.4,47.0,50.0,46.5,43.0,93,73,56,30.07,30.01,8,2,15,0.00
2012-5-29,72.0,57.4,43.0,54.0,46.9,41.0,94,71,43,30.06,29.98,7,1,13,0.00
2012-5-30,80.0,61.9,45.0,59.0,50.4,43.0,94,69,41,30.08,29.98,5,1,12,0.00
2012-5-31,89.0,66.2,48.0,60.0,53.5,46.0,95,68,33,30.02,29.82,5,1,10,0.00
2012-6-1,85.0,64.8,52.0,60.0,54.4,50.0,95,72,39,29.83,29.72,4,1,10,0.00
2012-6-2,75.0,63.0,54.0,60.0,52.6,-99.9,95,72,53,29.94,29.82,7,2,14,0.00
2012-6-3,80.0,62.9,51.0,56.0,50.2,41.0,93,66,32,29.93,29.85,5,1,13,0.00
2012-6-4,62.0,56.8,52.0,56.0,51.0,47.0,93,81,67,30.10,29.87,7,2,15,0.06
2012-6-5,64.0,56.4,49.0,47.0,44.5,41.0,89,66,48,30.16,30.10,7,2,16,0.01
2012-6-6,71.0,58.3,45.0,51.0,43.8,41.0,90,62,36,30.11,29.95,5,1,13,0.00
2012-6-7,73.0,59.8,46.0,54.0,48.7,43.0,91,68,43,30.01,29.95,8,2,17,0.00
2012-6-8,73.0,60.1,49.0,51.0,45.6,39.0,93,62,29,29.97,29.92,9,2,18,0.00
2012-6-9,78.0,62.4,45.0,47.0,42.5,38.0,87,53,25,29.97,29.83,6,2,13,0.00
2012-6-10,89.0,70.5,49.0,50.0,41.3,34.0,79,42,15,29.87,29.81,5,1,10,0.00
2012-6-11,94.0,71.9,53.0,58.0,49.2,38.0,75,49,15,29.93,29.84,4,1,9,0.00
2012-6-12,83.0,67.1,54.0,58.0,53.4,49.0,90,64,39,29.95,29.88,7,2,16,0.00
2012-6-13,79.0,64.6,51.0,58.0,51.8,48.0,91,66,40,29.91,29.72,6,1,12,0.00
2012-6-14,80.0,64.0,52.0,56.0,50.1,45.0,86,63,35,29.79,29.74,4,1,10,0.00
2012-6-15,90.0,66.4,48.0,58.0,50.8,44.0,88,61,23,29.80,29.72,4,0,8,0.00
2012-6-16,97.0,74.0,55.0,64.0,55.9,-99.9,91,60,26,29.81,29.71,4,1,10,0.00
2012-6-17,79.0,67.9,58.0,60.0,57.1,54.0,89,70,50,29.85,29.74,7,1,13,0.00
2012-6-18,82.0,65.2,58.0,58.0,53.1,44.0,90,68,33,29.88,29.79,6,1,13,0.00
2012-6-19,84.0,64.3,49.0,58.0,52.1,46.0,90,67,33,29.87,29.78,4,1,11,0.00
2012-6-20,91.0,70.3,51.0,60.0,53.4,47.0,91,61,22,29.81,29.73,5,1,13,0.00
2012-6-21,64.0,57.1,52.0,52.0,50.0,47.0,91,78,64,29.96,29.78,7,2,15,0.00
2012-6-22,72.0,58.9,46.0,55.0,50.3,44.0,92,74,52,29.94,29.84,5,1,10,0.00
2012-6-23,67.0,59.3,52.0,53.0,47.8,45.0,87,67,46,29.93,29.84,7,2,14,0.00
2012-6-24,68.0,58.2,46.0,48.0,45.8,43.0,90,66,42,30.02,29.93,5,2,14,0.00
2012-6-25,72.0,59.3,47.0,53.0,48.4,44.0,92,69,42,30.06,30.00,7,2,14,0.00
2012-6-26,75.0,61.8,48.0,52.0,48.1,44.0,92,64,37,30.03,29.87,5,1,12,0.00
2012-6-27,81.0,64.0,48.0,57.0,47.8,35.0,84,59,24,29.93,29.84,6,1,13,0.00
2012-6-28,77.0,63.4,50.0,57.0,51.4,45.0,87,67,46,30.07,29.93,7,2,17,0.00
2012-6-29,73.0,63.7,54.0,57.0,54.1,51.0,90,73,54,30.07,29.99,5,2,11,0.00
2012-6-30,77.0,66.7,54.0,63.0,58.6,52.0,92,76,60,30.02,29.91,6,2,13,0.00
2012-7-1,74.0,64.2,56.0,61.0,56.5,53.0,91,77,62,29.96,29.84,6,2,13,0.00
2012-7-2,79.0,64.2,55.0,60.0,54.5,50.0,91,73,47,29.90,29.83,5,1,11,0.00
2012-7-3,85.0,64.4,49.0,59.0,52.3,47.0,93,68,32,29.89,29.77,4,0,9,0.00
2012-7-4,81.0,64.1,52.0,59.0,53.9,49.0,92,72,40,29.87,29.78,7,1,12,0.00
2012-7-5,71.0,60.0,50.0,53.0,50.6,47.0,93,73,53,29.98,29.87,7,2,14,0.00
2012-7-6,80.0,63.2,47.0,59.0,52.8,45.0,95,72,47,30.00,29.92,5,0,10,0.00
2012-7-7,87.0,66.7,50.0,62.0,54.4,48.0,93,69,30,29.96,29.88,5,1,11,0.00
2012-7-8,78.0,63.2,52.0,59.0,53.7,49.0,94,73,46,30.00,29.95,5,1,12,0.00
2012-7-9,78.0,63.9,55.0,58.0,53.5,50.0,89,71,43,30.03,29.93,4,1,9,0.00
2012-7-10,87.0,65.7,49.0,61.0,54.6,47.0,96,71,39,29.94,29.78,4,0,9,0.00
2012-7-11,89.0,66.9,51.0,61.0,55.9,49.0,95,72,37,29.85,29.75,3,1,9,0.00
2012-7-12,80.0,65.5,52.0,60.0,55.5,50.0,95,72,48,29.84,29.76,4,0,9,0.00
2012-7-13,75.0,61.2,51.0,57.0,52.9,49.0,96,76,50,29.92,29.83,5,1,11,0.00
2012-7-14,75.0,62.8,53.0,58.0,53.3,50.0,91,73,54,29.93,29.83,5,1,12,0.00
2012-7-15,76.0,64.8,56.0,60.0,55.6,52.0,88,73,54,29.89,29.79,4,1,12,0.00
2012-7-16,68.0,61.3,56.0,56.0,52.6,51.0,87,74,57,29.90,29.80,12,4,21,0.00
2012-7-17,73.0,62.4,56.0,54.0,51.9,50.0,86,69,50,29.97,29.88,5,2,13,0.00
2012-7-18,75.0,63.8,57.0,56.0,53.0,50.0,81,69,51,29.98,29.92,4,1,13,0.00
2012-7-19,76.0,61.7,50.0,58.0,53.3,47.0,93,76,52,30.03,29.94,5,1,11,0.00
2012-7-20,88.0,67.6,53.0,61.0,54.9,51.0,94,68,34,30.06,29.93,4,1,11,0.00
2012-7-21,96.0,72.6,54.0,64.0,56.5,50.0,92,63,23,29.96,29.81,4,1,12,0.00
2012-7-22,81.0,67.4,56.0,61.0,56.7,52.0,91,70,47,29.90,29.80,5,1,10,0.00
2012-7-23,83.0,67.1,55.0,59.0,56.2,53.0,94,71,43,29.91,29.83,3,0,9,0.00
2012-7-24,76.0,65.4,56.0,60.0,56.1,53.0,93,74,53,29.95,29.86,7,1,12,0.00
2012-7-25,75.0,65.9,59.0,60.0,56.8,53.0,89,73,56,29.96,29.88,6,2,12,0.00
2012-7-26,76.0,64.7,57.0,59.0,54.5,51.0,83,71,50,29.96,29.89,5,1,11,0.00
2012-7-27,76.0,64.0,55.0,59.0,54.3,50.0,88,72,51,29.99,29.92,6,1,11,0.00
2012-7-28,78.0,65.4,57.0,58.0,54.4,51.0,89,69,44,30.02,29.96,6,1,13,0.00
2012-7-29,79.0,64.1,51.0,60.0,54.1,49.0,92,72,45,30.03,29.92,5,1,10,0.00
2012-7-30,90.0,69.4,56.0,63.0,58.2,53.0,91,71,40,29.96,29.83,5,1,10,0.00
2012-7-31,82.0,66.6,53.0,61.0,57.0,51.0,94,74,49,29.96,29.89,5,1,10,0.00
2012-8-1,82.0,66.1,53.0,61.0,56.9,51.0,95,75,48,30.02,29.93,6,1,10,0.00
2012-8-2,81.0,65.3,53.0,61.0,56.5,51.0,95,75,50,29.97,29.84,5,1,10,0.00
2012-8-3,81.0,65.5,55.0,60.0,56.4,52.0,91,74,47,29.88,29.77,5,1,9,0.00
2012-8-4,73.0,63.5,58.0,59.0,56.3,54.0,88,78,61,29.95,29.81,5,1,9,0.00
2012-8-5,77.0,65.0,57.0,61.0,56.5,52.0,88,76,51,30.06,29.94,5,1,9,0.00
2012-8-6,82.0,65.5,54.0,60.0,55.1,51.0,92,72,40,30.10,29.99,4,1,10,0.00
2012-8-7,82.0,66.2,52.0,60.0,54.3,50.0,95,69,37,30.03,29.94,6,1,11,0.00
2012-8-8,89.0,67.2,49.0,61.0,55.1,47.0,93,69,39,29.98,29.87,4,1,8,0.00
2012-8-9,87.0,67.3,51.0,63.0,55.9,49.0,95,71,34,29.92,29.79,5,1,9,0.00
2012-8-10,82.0,66.4,54.0,60.0,56.2,52.0,95,73,43,29.83,29.71,5,1,9,0.00
2012-8-11,84.0,65.5,51.0,62.0,55.1,-99.9,96,74,42,29.79,29.70,4,1,8,0.00
2012-8-12,78.0,65.2,55.0,61.0,56.3,52.0,94,75,47,29.83,29.75,5,1,10,0.00
2012-8-13,84.0,67.1,56.0,61.0,57.0,53.0,93,72,43,29.83,29.73,4,1,8,0.00
2012-8-14,77.0,66.1,57.0,61.0,57.7,53.0,92,76,58,29.80,29.74,6,1,11,0.00
2012-8-15,75.0,63.8,58.0,60.0,56.4,54.0,91,78,56,29.87,29.77,5,1,10,0.00
2012-8-16,77.0,65.1,55.0,61.0,56.7,52.0,94,76,55,29.93,29.84,4,1,10,0.00
2012-8-17,79.0,64.9,55.0,60.0,56.8,52.0,94,77,52,29.98,29.88,4,0,10,0.00
2012-8-18,81.0,66.5,58.0,61.0,56.5,52.0,92,72,44,29.94,29.87,6,1,12,0.00
2012-8-19,77.0,63.5,52.0,60.0,55.4,50.0,96,77,54,29.95,29.86,4,1,10,0.00
2012-8-20,75.0,62.9,53.0,59.0,54.8,50.0,94,76,56,29.92,29.83,4,1,9,0.00
2012-8-21,80.0,63.8,51.0,60.0,55.1,49.0,96,75,47,29.91,29.83,4,1,10,0.00
2012-8-22,76.0,64.3,55.0,61.0,56.6,52.0,93,78,57,29.91,29.85,4,1,13,0.00
2012-8-23,73.0,64.8,58.0,61.0,57.8,54.0,90,79,63,29.91,29.81,5,1,11,0.00
2012-8-24,77.0,64.9,55.0,61.0,56.7,53.0,94,76,52,29.88,29.79,5,1,11,0.00
2012-8-25,76.0,63.4,54.0,58.0,55.0,51.0,93,76,51,29.86,29.77,5,1,12,0.00
2012-8-26,69.0,60.1,50.0,54.0,51.5,48.0,94,74,56,29.97,29.85,6,2,13,0.00
2012-8-27,86.0,65.8,50.0,62.0,54.9,47.0,91,71,38,30.03,29.90,4,1,10,0.00
2012-8-28,85.0,68.6,53.0,62.0,54.0,48.0,95,65,28,29.99,29.90,5,1,12,0.00
2012-8-29,90.0,68.9,50.0,60.0,52.8,45.0,92,63,23,29.92,29.74,4,1,9,0.00
2012-8-30,82.0,64.9,51.0,60.0,53.9,45.0,86,69,43,29.84,29.73,3,1,9,0.00
2012-8-31,64.0,57.2,51.0,54.0,51.8,48.0,94,82,69,29.97,29.84,7,2,15,0.00
2012-9-1,74.0,61.4,54.0,56.0,52.9,51.0,91,75,52,30.02,29.93,5,1,13,0.00
2012-9-2,85.0,64.8,50.0,60.0,54.7,48.0,96,74,35,29.96,29.85,3,0,8,0.00
2012-9-3,84.0,65.9,49.0,61.0,54.6,46.0,92,71,38,29.93,29.85,4,0,8,0.00
2012-9-4,76.0,61.1,49.0,59.0,53.9,47.0,96,79,54,30.00,29.91,5,0,10,0.00
2012-9-5,69.0,60.4,52.0,58.0,54.8,50.0,94,82,65,29.97,29.90,4,0,9,0.00
2012-9-6,75.0,62.0,53.0,58.0,54.0,51.0,95,77,51,29.99,29.90,6,1,11,0.00
2012-9-7,75.0,61.7,51.0,56.0,52.8,49.0,94,75,51,30.06,29.96,5,1,9,0.00
2012-9-8,73.0,61.4,51.0,57.0,52.0,48.0,94,73,46,30.05,29.93,5,1,11,0.00
2012-9-9,75.0,61.3,49.0,56.0,50.8,46.0,90,70,48,29.98,29.88,5,1,12,0.00
2012-9-10,86.0,62.8,47.0,59.0,52.4,45.0,95,73,32,29.91,29.78,3,0,8,0.00
2012-9-11,77.0,62.1,49.0,61.0,54.5,47.0,96,78,53,29.93,29.82,5,1,10,0.00
2012-9-12,75.0,62.6,54.0,61.0,56.5,52.0,95,82,59,30.04,29.92,5,1,9,0.00
2012-9-13,77.0,63.3,53.0,61.0,56.3,52.0,95,80,55,30.06,29.97,4,0,9,0.00
2012-9-14,72.0,61.2,54.0,58.0,54.3,51.0,94,80,57,30.08,29.98,4,1,9,0.00
2012-9-15,75.0,60.1,49.0,57.0,52.7,47.0,96,79,48,30.08,29.96,4,0,9,0.00
2012-9-16,73.0,58.6,47.0,58.0,52.0,45.0,96,81,55,30.03,29.93,3,0,8,0.00
2012-9-17,70.0,59.5,51.0,56.0,52.5,48.0,93,79,59,30.03,29.95,4,0,11,0.00
2012-9-18,74.0,58.9,49.0,55.0,50.8,47.0,94,76,51,30.09,29.99,4,1,10,0.00
2012-9-19,72.0,57.5,47.0,55.0,49.8,45.0,94,77,49,30.10,30.01,4,1,10,0.00
2012-9-20,77.0,59.4,45.0,56.0,49.2,43.0,95,72,41,30.06,29.95,4,0,9,0.00
2012-9-21,76.0,59.9,46.0,58.0,50.2,43.0,91,72,42,29.98,29.86,4,0,10,0.00
2012-9-22,80.0,61.8,46.0,58.0,51.1,-99.9,93,73,40,29.91,29.83,3,0,9,0.00
2012-9-23,78.0,60.6,47.0,61.0,53.2,45.0,95,79,45,29.93,29.86,4,0,9,0.01
2012-9-24,76.0,60.8,48.0,60.0,53.8,47.0,97,80,52,29.95,29.84,3,1,8,0.01
2012-9-25,74.0,60.9,50.0,61.0,55.0,49.0,96,82,62,29.90,29.82,4,1,9,0.01
2012-9-26,73.0,60.7,52.0,59.0,54.8,50.0,95,82,61,29.88,29.79,5,1,10,0.00
2012-9-27,80.0,61.4,50.0,62.0,55.1,48.0,96,82,53,29.91,29.79,3,0,7,0.00
2012-9-28,69.0,58.8,51.0,59.0,54.6,49.0,96,87,69,29.94,29.85,4,1,9,0.00
2012-9-29,77.0,63.2,56.0,62.0,56.4,52.0,94,80,54,30.01,29.93,4,0,8,0.00
2012-9-30,92.0,67.4,50.0,62.0,55.4,49.0,97,71,33,30.03,29.91,3,0,7,0.00
2012-10-1,97.0,74.2,52.0,60.0,51.1,36.0,85,52,15,29.97,29.83,3,1,7,0.00
2012-10-2,100.0,76.2,55.0,59.0,51.2,45.0,74,47,17,29.85,29.72,3,0,6,0.00
2012-10-3,84.0,69.8,55.0,62.0,55.9,49.0,90,63,42,29.96,29.76,6,1,11,0.00
2012-10-4,76.0,63.1,53.0,59.0,55.5,51.0,96,78,55,30.11,29.96,5,1,10,0.00
2012-10-5,75.0,62.2,53.0,59.0,54.9,51.0,94,79,56,30.13,30.03,5,1,12,0.00
2012-10-6,73.0,61.2,52.0,60.0,52.1,48.0,95,75,47,30.05,29.93,6,1,13,0.00
2012-10-7,74.0,59.0,46.0,57.0,49.9,44.0,95,74,46,29.99,29.91,5,1,10,0.00
2012-10-8,72.0,58.7,47.0,57.0,50.5,45.0,94,76,49,30.01,29.96,5,0,11,0.00
2012-10-9,70.0,58.0,48.0,58.0,51.2,46.0,95,80,57,30.01,29.91,5,1,11,0.12
2012-10-10,73.0,59.8,53.0,58.0,53.7,48.0,97,82,48,29.94,29.85,4,0,9,0.13
2012-10-11,62.0,56.9,53.0,54.0,51.6,50.0,90,82,71,29.95,29.87,6,1,12,0.01
2012-10-12,65.0,58.3,54.0,55.0,51.7,49.0,91,79,61,30.20,29.94,3,0,8,0.00
2012-10-13,74.0,59.3,48.0,58.0,51.5,46.0,95,78,48,30.28,30.15,3,0,10,0.00
2012-10-14,78.0,61.5,52.0,63.0,56.8,50.0,97,85,59,30.19,30.04,4,0,8,0.00
2012-10-15,83.0,63.9,55.0,62.0,57.2,54.0,98,81,47,30.06,29.92,4,0,9,0.00
2012-10-16,78.0,65.5,56.0,66.0,58.8,54.0,96,80,60,29.98,29.84,4,1,12,0.00
2012-10-17,89.0,68.5,50.0,55.0,44.0,30.0,96,53,14,29.88,29.78,3,0,7,0.01
2012-10-18,90.0,70.5,50.0,63.0,48.8,41.0,75,51,21,29.98,29.84,8,1,17,0.01
2012-10-19,73.0,65.1,60.0,64.0,60.8,57.0,96,86,73,30.01,29.89,4,1,11,0.00
2012-10-20,70.0,58.2,50.0,58.0,51.8,45.0,95,80,61,29.91,29.80,7,1,14,0.00
2012-10-21,66.0,53.2,43.0,48.0,43.1,39.0,94,71,40,29.92,29.83,5,1,11,0.02
2012-10-22,63.0,56.2,52.0,56.0,49.6,43.0,97,80,50,29.92,29.71,7,1,16,0.75
2012-10-23,63.0,53.9,47.0,53.0,48.1,44.0,98,82,51,30.03,29.91,2,0,11,0.52
2012-10-24,65.0,55.9,46.0,55.0,48.3,44.0,97,77,48,30.17,30.00,5,1,9,0.22
2012-10-25,66.0,56.6,49.0,55.0,51.9,47.0,96,85,63,30.24,30.15,2,0,8,0.05
2012-10-26,75.0,57.7,45.0,51.0,44.5,36.0,96,68,25,30.21,30.06,2,0,7,0.01
2012-10-27,81.0,62.4,49.0,58.0,52.4,47.0,97,74,40,30.07,29.91,4,0,7,0.00
2012-10-28,84.0,63.4,51.0,61.0,55.0,50.0,97,78,41,30.00,29.91,3,0,8,0.01
2012-10-29,74.0,58.6,51.0,61.0,54.8,50.0,98,89,60,30.08,30.00,3,0,7,0.01
2012-10-30,71.0,56.2,49.0,60.0,53.4,48.0,98,91,68,30.07,29.94,3,0,6,0.01
2012-10-31,64.0,59.3,54.0,57.0,55.1,53.0,98,87,73,30.00,29.94,4,1,12,0.02
2012-11-1,68.0,59.1,49.0,61.0,56.3,48.0,98,91,70,30.03,29.96,4,0,8,0.16
2012-11-2,67.0,54.0,44.0,54.0,49.3,43.0,97,86,62,30.06,30.00,3,0,8,0.01
2012-11-3,74.0,57.9,46.0,55.0,50.4,45.0,98,79,50,30.12,30.04,3,0,7,0.01
2012-11-4,80.0,62.1,49.0,59.0,53.1,48.0,97,76,41,30.18,30.09,3,0,7,0.00
2012-11-5,84.0,63.8,49.0,58.0,53.2,48.0,96,73,34,30.12,29.99,1,0,4,0.00
2012-11-6,81.0,62.4,48.0,59.0,53.1,46.0,95,75,40,30.05,29.96,3,0,6,0.00
2012-11-7,69.0,55.2,47.0,57.0,51.4,45.0,97,88,64,30.03,29.93,4,0,7,0.00
2012-11-8,60.0,52.3,43.0,50.0,45.1,41.0,94,77,56,29.95,29.88,5,1,13,0.06
2012-11-9,57.0,47.7,41.0,46.0,41.7,37.0,96,81,49,29.97,29.87,4,1,13,0.06
2012-11-10,59.0,47.9,39.0,44.0,39.7,36.0,95,76,46,30.22,29.97,6,1,12,0.01
2012-11-11,62.0,47.0,36.0,44.0,38.3,34.0,96,75,37,30.35,30.22,3,0,6,0.01
2012-11-12,63.0,48.1,37.0,44.0,39.3,35.0,97,75,41,30.35,30.22,3,0,7,0.01
2012-11-13,69.0,51.9,38.0,46.0,40.0,36.0,94,68,33,30.24,30.06,4,0,7,0.00
2012-11-14,70.0,53.3,42.0,51.0,43.5,-99.9,93,73,45,30.09,29.98,2,0,7,0.00
2012-11-15,70.0,54.0,41.0,50.0,45.1,39.0,96,75,43,29.99,29.91,4,0,13,0.00
2012-11-16,64.0,56.7,50.0,58.0,53.3,47.0,96,88,71,29.97,29.82,2,0,11,0.10
2012-11-17,65.0,58.8,53.0,61.0,55.8,52.0,97,90,71,29.98,29.78,7,1,18,0.71
2012-11-18,63.0,55.0,47.0,54.0,48.5,43.0,98,81,48,30.14,29.98,4,0,9,0.50
2012-11-24,69.0,58.8,46.0,54.0,49.5,43.0,94,73,51,30.12,30.01,3,0,7,0.01
2012-11-25,65.0,50.0,43.0,55.0,47.7,42.0,98,92,69,30.01,29.90,1,0,4,0.01
2012-11-26,64.0,49.3,40.0,55.0,46.6,39.0,98,91,73,30.05,29.94,2,0,6,0.01
2012-11-27,62.0,54.8,48.0,53.0,49.6,47.0,97,83,66,30.08,29.96,4,0,18,0.01
2012-11-28,61.0,56.4,52.0,60.0,51.9,48.0,96,85,70,30.03,29.81,7,1,22,1.07
2012-11-29,61.0,57.4,52.0,58.0,53.9,50.0,95,88,76,30.03,29.85,5,1,17,0.11
2012-11-30,62.0,59.7,56.0,60.0,57.6,54.0,97,93,83,30.00,29.78,8,2,21,2.08
2012-12-1,63.0,58.8,57.0,59.0,56.3,54.0,96,91,85,30.01,29.94,6,2,14,0.40
2012-12-2,59.0,51.8,45.0,57.0,49.3,44.0,97,91,74,30.09,29.90,4,0,9,1.57
2012-12-3,63.0,50.6,41.0,51.0,46.5,40.0,98,87,61,30.18,30.08,2,0,6,0.01
2012-12-4,49.0,47.8,47.0,48.0,46.7,46.0,97,96,94,30.17,30.13,0,0,1,0.01
2012-12-23,54.0,52.2,47.0,53.0,50.9,46.0,96,95,94,29.99,29.83,3,1,15,1.70
2012-12-24,58.0,47.2,40.0,50.0,43.2,39.0,97,87,62,30.19,29.99,2,0,6,0.02
2012-12-25,52.0,42.8,39.0,49.0,40.8,37.0,95,93,88,30.14,29.88,1,0,5,0.05
2012-12-26,53.0,48.5,44.0,49.0,44.6,42.0,96,87,74,30.09,29.88,6,2,15,0.32
2012-12-27,56.0,46.6,38.0,43.0,40.3,36.0,94,80,53,30.15,30.07,4,0,10,0.04
2012-12-28,54.0,42.9,35.0,43.0,39.0,33.0,96,87,63,30.16,30.00,2,0,5,0.06
2012-12-29,53.0,45.1,41.0,45.0,41.8,35.0,95,89,66,30.06,29.98,2,0,6,0.31
2012-12-30,55.0,42.6,34.0,46.0,37.9,33.0,97,85,58,30.16,30.03,3,0,8,0.01
2012-12-31,55.0,42.0,31.0,39.0,32.9,26.0,95,74,36,30.28,30.16,2,0,6,0.01
2013-1-1,55.0,42.9,34.0,40.0,36.8,32.0,95,81,51,30.26,30.19,1,0,9,0.01